Flight Track Log - Related Links

Times and Time Zones

All times are in EDT time to prevent confusion due to time zone crossing. See the CHQ6073 flight status page for this flight to view local times or setup timezone preferences in your user account.

Time Position Orientation Groundspeed Altitude Reporting Facility
EDT Latitude Longitude Course Direction KTS MPH feet Rate Location/Type
Mon 06:06:19 PM 41.3947 -81.8814 312° West 182 209 1,700  Level Cleveland Center
Mon 06:07:12 PM 41.3983 -81.9356 275° West 199 229 3,000 1,856 Climbing Cleveland Center
Mon 06:07:56 PM 41.4228 -82.0061 295° West 256 295 4,700 2,129 Climbing Cleveland Center
Mon 06:08:14 PM 41.4281 -82.0178 301° West 236 272 5,200 3,045 Climbing Cleveland Center
Mon 06:09:00 PM 41.4033 -82.2553 309° West  Level FlightAware Approximate
Mon 06:09:03 PM 41.4567 -82.0925 297° West 245 282 8,100  Level Cleveland Center
Mon 06:09:16 PM 41.4600 -82.0986 306° West 246 283 8,300 1,816 Climbing Cleveland Center
Mon 06:10:00 PM 41.4550 -82.3414 309° West  Level FlightAware Approximate
Mon 06:10:19 PM 41.4997 -82.1978 298° West 258 297 10,400  Level Cleveland Center
Mon 06:11:00 PM 41.5071 -82.4272 312° West  Level FlightAware Approximate
Mon 06:11:21 PM 41.5383 -82.2956 298° West 290 334 11,600  Level Cleveland Center
Mon 06:12:23 PM 41.5808 -82.4047 298° West 326 375 12,000 276 Climbing Cleveland Center
Mon 06:12:48 PM 41.6011 -82.4622 295° West 366 421 12,000  Level Cleveland Center
Mon 06:13:25 PM 41.6269 -82.5211 300° West 347 399 12,000  Level Cleveland Center
Mon 06:14:14 PM 41.6628 -82.6233 295° West 357 411 12,000  Level Cleveland Center
Mon 06:14:27 PM 41.6758 -82.6472 306° West 352 405 12,000  Level Cleveland Center
Mon 06:15:21 PM 41.7178 -82.7592 297° West 354 407 12,000  Level Cleveland Center
Mon 06:16:16 PM 41.7803 -82.8483 313° West 356 410 12,000  Level Cleveland Center
Mon 06:16:31 PM 41.7892 -82.8589 318° Northwest 352 405 12,000 -107 Level Cleveland Center
Mon 06:17:12 PM 41.8478 -82.9272 319° Northwest 355 409 11,900 -290 Descending Cleveland Center
Mon 06:17:33 PM 41.8644 -82.9442 323° Northwest 354 407 11,700 -787 Descending Cleveland Center
Mon 06:18:13 PM 41.9208 -83.0156 317° Northwest 351 404 11,100 -677 Descending Cleveland Center
Mon 06:18:35 PM 41.9369 -83.0314 324° Northwest 353 406 11,000 -98 Descending Cleveland Center
Mon 06:19:14 PM 41.9939 -83.1014 318° Northwest 351 404 11,000  Level Cleveland Center
Mon 06:19:38 PM 42.0242 -83.1369 319° Northwest 352 405 11,000  Level Cleveland Center
Mon 06:20:15 PM 42.0708 -83.1933 318° Northwest 348 400 11,000  Level Cleveland Center
Mon 06:20:40 PM 42.0906 -83.2164 319° Northwest 335 386 11,000 -97 Level Cleveland Center
Mon 06:21:17 PM 42.1317 -83.2439 334° Northwest 239 275 10,900 -484 Descending Cleveland Center
Mon 06:21:42 PM 42.1539 -83.2408 North 250 288 10,500 -1,377 Descending Cleveland Center
Mon 06:22:18 PM 42.1942 -83.2217 19° North 241 277 9,500 -1,452 Descending Cleveland Center
Mon 06:22:44 PM 42.2139 -83.2075 28° Northeast 242 278 9,000 -1,377 Descending Cleveland Center
Mon 06:23:19 PM 42.2561 -83.1794 26° Northeast 233 268 8,100 -1,161 Descending Cleveland Center
Mon 06:23:46 PM 42.2717 -83.1708 22° Northeast 235 270 7,800 -1,235 Descending Cleveland Center
Mon 06:24:27 PM 42.3175 -83.1458 22° Northeast 216 249 6,700 -1,839 Descending Cleveland Center
Mon 06:24:48 PM 42.3378 -83.1561 339° North 224 258 5,900 -1,967 Descending Cleveland Center
Mon 06:25:28 PM 42.3572 -83.1992 301° West 196 226 4,700 -1,839 Descending Cleveland Center
Mon 06:25:50 PM 42.3533 -83.2194 255° West 207 238 4,000 -1,612 Descending Cleveland Center
Mon 06:26:35 PM 42.3214 -83.2592 223° Southwest 186 214 2,900 -1,258 Descending Cleveland Center
Mon 06:26:52 PM 42.3150 -83.2642 210° Southwest 186 214 2,700 -885 Descending Cleveland Center
Mon 06:27:36 PM 42.2769 -83.2925 209° Southwest 164 189 2,000 -871 Descending Cleveland Center
Mon 06:27:54 PM 42.2708 -83.2950 197° South 184 212 1,800 -787 Descending Cleveland Center
Mon 06:28:37 PM 42.2414 -83.3186 211° Southwest 139 160 1,200 -677 Descending Cleveland Center
Mon 06:28:56 PM 42.2367 -83.3217 206° Southwest 157 181 1,100 -220 Descending Cleveland Center
Mon 06:29:59 PM 42.2025 -83.3469 209° Southwest 153 176 900 -190 Descending Cleveland Center

Login

Don't have an account? Register now (free) for customized features, flight alerts, and more!